TimeEST,TemperatureF,Dew PointF,Humidity,Sea Level PressureIn,VisibilityMPH,Wind Direction,Wind SpeedMPH,Gust SpeedMPH,PrecipitationIn,Events,Conditions,WindDirDegrees,DateUTC
12:53 AM,36.0,16.0,44,29.88,10.0,West,6.9,-,N/A,,Overcast,270,2012-11-25 05:53:00
1:53 AM,35.1,15.1,44,29.89,10.0,NW,13.8,18.4,N/A,,Mostly Cloudy,320,2012-11-25 06:53:00
2:53 AM,35.1,12.0,39,29.89,10.0,WNW,15.0,27.6,N/A,,Clear,300,2012-11-25 07:53:00
3:53 AM,34.0,14.0,44,29.91,10.0,NW,11.5,-,N/A,,Clear,310,2012-11-25 08:53:00
4:53 AM,34.0,15.1,46,29.92,10.0,WNW,9.2,18.4,N/A,,Clear,290,2012-11-25 09:53:00
5:53 AM,34.0,14.0,44,29.93,10.0,WNW,11.5,16.1,N/A,,Clear,300,2012-11-25 10:53:00
6:53 AM,34.0,12.9,42,29.95,10.0,NW,5.8,-,N/A,,Clear,310,2012-11-25 11:53:00
7:53 AM,35.1,14.0,42,29.96,10.0,NW,10.4,-,N/A,,Clear,310,2012-11-25 12:53:00
8:53 AM,37.0,16.0,42,29.96,10.0,NW,8.1,17.3,N/A,,Clear,310,2012-11-25 13:53:00
9:53 AM,37.9,17.1,43,29.94,10.0,WNW,6.9,-,N/A,,Clear,290,2012-11-25 14:53:00
10:53 AM,37.9,17.1,43,29.94,10.0,WNW,12.7,19.6,N/A,,Mostly Cloudy,290,2012-11-25 15:53:00
11:53 AM,39.0,18.0,43,29.92,10.0,West,9.2,-,N/A,,Mostly Cloudy,280,2012-11-25 16:53:00
12:53 PM,39.9,19.9,45,29.91,10.0,West,6.9,-,N/A,,Overcast,270,2012-11-25 17:53:00
1:53 PM,39.0,19.9,46,29.89,10.0,Variable,5.8,-,N/A,,Overcast,0,2012-11-25 18:53:00
2:53 PM,39.0,19.9,46,29.89,10.0,West,10.4,17.3,N/A,,Mostly Cloudy,280,2012-11-25 19:53:00
3:53 PM,39.0,19.0,45,29.90,10.0,West,6.9,-,N/A,,Clear,270,2012-11-25 20:53:00
4:53 PM,37.0,19.0,48,29.91,10.0,Variable,3.5,-,N/A,,Partly Cloudy,0,2012-11-25 21:53:00
5:53 PM,35.1,19.0,52,29.92,10.0,WSW,3.5,-,N/A,,Partly Cloudy,240,2012-11-25 22:53:00
6:53 PM,36.0,19.0,50,29.94,10.0,WSW,3.5,-,N/A,,Overcast,250,2012-11-25 23:53:00
7:53 PM,35.1,19.0,52,29.96,10.0,WSW,6.9,-,N/A,,Overcast,240,2012-11-26 00:53:00
8:53 PM,35.1,19.9,54,29.98,10.0,SW,4.6,-,N/A,,Overcast,230,2012-11-26 01:53:00
9:53 PM,34.0,19.9,56,29.99,10.0,SW,4.6,-,N/A,,Overcast,230,2012-11-26 02:53:00
10:53 PM,34.0,19.0,54,29.98,10.0,Variable,4.6,-,N/A,,Overcast,0,2012-11-26 03:53:00
11:53 PM,35.1,19.0,52,29.99,10.0,SW,5.8,-,N/A,,Overcast,220,2012-11-26 04:53:00